Location: Beuren
(48.8231°N, 10.2467°E)
Time: 01:07:23
(UTC+00:00)

Daily predictions for brighter satellites

Satellite Brightness Start Highest point End
(mag) Time Altitude Azimuth Time Altitude Azimuth Time Altitude Azimuth
CENTAUR R/B 4.4 02:05:13 26° N 02:05:13 26° N 02:10:58 10° NE
ACS3 Solar Sail 3.5 02:00:20 10° NNE 02:03:45 28° NE 02:03:45 28° NE
USA 234 4.3 02:07:32 10° ESE 02:11:31 39° E 02:11:31 39° E
Cosmos 2360 Rocket 4.1 02:17:23 25° NE 02:17:23 25° NE 02:19:44 10° NE
Cosmos 2322 Rocket 4.2 02:17:42 24° NE 02:17:42 24° NE 02:19:56 10° NE
SL-16 R/B 4.3 02:24:11 21° NNE 02:24:11 21° NNE 02:25:56 10° NNE
Cosmos 1943 Rocket 4.4 02:24:44 18° NNE 02:25:54 19° NE 02:29:49 10° E
ADEOS Rocket 3.6 02:33:13 10° NNE 02:38:45 62° NE 02:38:45 62° NE
CZ-2C R/B 4.2 02:37:35 10° NE 02:41:55 29° E 02:42:20 28° ESE
Cosmos 2219 Rocket 2.9 02:55:06 49° ENE 02:55:06 49° ENE 02:59:29 10° NE
BREEZE-M DEB (TANK) 4.4 02:53:28 73° WSW 02:54:13 77° SSW 03:18:57 10° SE
USA 59 Rocket 2.8 03:05:02 10° ENE 03:05:02 10° ENE 03:05:08 10° ENE
Cosmos 1727 Rocket 4.5 03:10:38 10° S 03:16:40 58° E 03:22:46 10° NNE
CZ-2D R/B 4.5 03:14:05 10° N 03:14:23 11° N 03:14:23 11° N
USA 267 3.1 03:13:02 10° NE 03:19:36 90° SE 03:20:18 74° SW
Cosmos 2150 Rocket 4.5 03:23:19 53° NNE 03:23:19 53° NNE 03:27:20 10° NNE
Cosmos 2228 Rocket 3.9 03:26:01 46° NE 03:26:01 46° NE 03:29:30 10° NNE
Cosmos 1980 Rocket 4.5 03:27:56 12° NNW 03:27:56 12° NNW 03:28:49 10° N
Cosmos 1269 Rocket 4.3 03:29:01 44° N 03:30:35 65° ENE 03:35:50 10° SSE
H-2A R/B 3.9 03:26:39 10° N 03:28:05 19° N 03:28:05 19° N
USA 238 DEB 4.3 03:33:04 37° NNW 03:33:04 37° NNW 03:39:31 10° NE
USA 238 4.3 03:33:10 37° NNW 03:33:10 37° NNW 03:39:38 10° NE
Cosmos 2278 Rocket 3.2 03:29:48 20° N 03:33:29 45° NE 03:38:52 10° SE
Cosmos 2173 Rocket 4.1 03:31:27 10° N 03:37:32 69° ENE 03:43:35 10° SSE
Cosmos 2333 Rocket 3.3 03:39:31 31° NNW 03:39:31 31° NNW 03:43:17 10° NNE
Cosmos 2237 Rocket 4.5 03:35:52 10° SSE 03:40:13 23° ESE 03:44:35 10° NE
ADEOS II 4.2 03:39:12 10° N 03:39:55 13° NNW 03:39:55 13° NNW
COSMOS 2455 3.3 03:45:06 42° NW 03:45:06 42° NW 03:50:29 10° NNE
Lacrosse 5 rocket 3.1 03:46:58 20° NNE 03:46:58 20° NNE 03:48:20 10° NE
Cosmos 1153 Rocket 4.3 03:39:56 10° NNW 03:46:03 67° W 03:52:12 10° S
Cosmos 2298 Rocket 4.2 03:46:57 56° NW 03:46:57 56° NW 03:51:40 10° NNE
Cosmos 1939 Rocket 3.4 03:43:27 10° NNE 03:47:14 53° E 03:48:49 31° SSE
ACS3 Solar Sail 2.2 03:43:15 10° N 03:47:53 41° NW 03:47:53 41° NW
BlueWalker 3 2.8 03:53:51 41° SE 03:53:51 41° SE 03:56:22 10° SE
USA 234 3.4 03:50:49 10° SSE 03:57:11 53° SW 03:58:53 43° W
CENTAUR R/B 4.3 03:52:18 17° NNW 03:57:17 33° NNE 04:05:06 10° E
Cosmos 2123 Rocket 4.4 03:52:03 10° S 03:58:10 63° E 04:04:17 10° NNE
Cosmos 2360 Rocket 3.0 03:59:09 32° NW 03:59:09 32° NW 04:03:36 10° NNE
Cosmos 2322 Rocket 3.2 03:59:32 29° NNW 03:59:32 29° NNW 04:03:45 10° NNE
Helios 1A Rocket 3.8 03:57:07 10° SE 04:00:18 38° ENE 04:02:41 16° N
Meteor 2-5 Rocket 4.5 03:55:02 10° S 04:00:48 56° E 04:06:31 10° NNE
Gbstr 26 Del rocket 3.8 03:59:16 40° SSW 04:00:53 61° SSE 04:06:41 10° ENE
SL-16 R/B 3.8 04:06:02 19° NNW 04:06:02 19° NNW 04:09:21 10° N
Cosmos 44 Rocket 3.3 04:05:02 49° WNW 04:06:21 71° SW 04:11:28 10° SSE
Cosmos 2016 Rocket 4.3 04:02:25 10° N 04:08:50 72° E 04:15:10 10° SSE
Cosmos 1943 Rocket 2.2 04:06:17 18° NNW 04:10:33 80° ENE 04:16:03 10° SSE
Meteor 2-14 Rocket 4.3 04:05:56 10° SSW 04:11:59 64° WNW 04:18:03 10° N
Okean 1-7 3.6 04:13:10 38° NNW 04:13:10 38° NNW 04:16:09 10° N
H-2A R/B 3.9 04:08:30 10° N 04:11:15 41° NNW 04:11:15 41° NNW
ARGOS 3.4 04:09:34 10° N 04:14:44 46° WNW 04:16:17 36° WSW
NOSS 2-1 (C) 2.7 04:14:58 85° S 04:15:01 87° SE 04:18:05 10° NE
PAYLOAD A 4.1 04:10:18 10° N 04:15:37 59° WNW 04:20:29 12° SSW
Meteor 2-21 Rocket 4.5 04:09:49 10° S 04:15:56 81° E 04:22:03 10° NNE
Cosmos 1908 Rocket 3.4 04:12:01 10° N 04:16:28 83° W 04:20:53 10° S
Cosmos 1140 Rocket 3.4 04:15:56 28° NW 04:18:32 61° WSW 04:23:32 10° S
NOSS 2-1 (D) 2.6 04:19:05 80° NW 04:19:05 80° NW 04:22:06 10° NE
CZ-2C R/B 2.7 04:15:22 10° N 04:20:05 44° WNW 04:21:33 35° WSW
Timation 2 Rocket 4.0 04:14:48 15° NW 04:20:31 72° WSW 04:26:52 10° SSE
Cosmos 1300 Rocket 3.9 04:16:54 10° N 04:21:14 64° ENE 04:25:30 10° SSE
ADEOS Rocket 4.0 04:19:28 10° N 04:24:49 28° WNW 04:25:40 28° WNW
Cosmos 2061 Rocket 4.3 04:22:39 10° N 04:28:52 68° ENE 04:35:01 10° SSE
NOSS 3-1 (C) 2.9 04:27:24 27° WSW 04:30:01 69° NW 04:35:52 10° NE
Iridium 4 Rocket 2.9 04:27:19 10° N 04:31:44 87° W 04:35:53 10° S
Cosmos 2100 Rocket 4.1 04:26:14 10° NNW 04:32:06 48° W 04:37:58 10° SSW
SJ 16-02 3.1 04:28:47 10° N 04:32:36 30° ENE 04:36:23 10° ESE
Orbus 7S? 4.5 04:29:37 10° SW 04:35:43 48° SE 04:38:54 10° ENE
Cosmos 2219 Rocket 3.1 04:36:50 26° WNW 04:38:14 29° NW 04:43:10 10° NNE
IRS-1D 3.3 04:35:15 10° NNE 04:40:15 81° WNW 04:45:10 10° SSW
NOSS 0 Rocket 3.9 04:38:07 10° SSW 04:44:16 87° WNW 04:50:28 10° NNE
Cosmos 1869 4.3 04:44:17 10° N 04:47:39 41° ENE 04:50:58 10° SSE
COSMOS 2428 2.8 04:42:12 10° SW 04:47:47 55° NW 04:53:23 10° NNE
Cosmos 371 Rocket 4.4 04:46:44 10° NNW 04:51:22 43° ENE 04:55:58 10° SE
USA 59 Rocket -0.1 04:50:47 30° WNW 04:51:25 34° NW 04:54:11 10° NNE
Cosmos 1459 Rocket 4.5 04:47:25 10° NNW 04:53:13 38° W 04:58:59 10° SSW
Cosmos 2322 4.0 04:50:01 10° SW 04:55:20 44° NW 05:00:46 10° NNE
Cosmos 1954 Rocket 4.5 04:51:27 10° NNW 04:56:39 62° ENE 05:01:45 10° SE
FengYun 1-2 T 4.4 04:51:20 10° N 04:56:42 51° WNW 05:02:03 10° SW
COSMO-SKYMED 1 2.4 04:54:26 10° S 04:58:30 60° W 05:02:36 10° NNW
SKYMED 2 3.9 04:55:42 10° S 04:59:51 44° W 05:04:02 10° NNW
Cosmos 407 Rocket 3.6 04:55:30 10° NNW 05:00:26 50° WSW 05:05:21 10° S
USA 267 3.6 04:56:06 10° ENE 05:02:21 49° NNW 05:07:39 15° W
Cosmos 1484 Rocket 2.9 04:59:19 10° NNE 05:02:52 66° ESE 05:06:23 10° S
Cosmos 2228 Rocket 4.4 05:03:28 18° WNW 05:03:39 18° WNW 05:06:43 10° NNW
Cosmos 1725 Rocket 4.3 04:57:46 10° NNW 05:03:45 46° W 05:09:41 10° SSW
Cosmos 1980 3.6 05:01:48 10° SSW 05:07:27 78° WNW 05:13:10 10° NNE
Cosmos 1656 Rocket 4.1 05:08:01 10° NNW 05:13:42 67° ENE 05:19:20 10° SE
NOSS 3-1 (A) 3.0 05:09:24 10° SW 05:14:10 75° NW 05:20:02 10° NE
Cosmos 2233 Rocket 4.1 05:08:54 10° NNW 05:15:02 54° W 05:21:06 10° SSW
Cosmos 1400 Rocket 4.4 05:11:37 10° N 05:15:04 33° ENE 05:18:27 10° SE
Cosmos 2278 Rocket 2.8 05:12:20 10° NW 05:17:26 35° WSW 05:22:30 10° S
Cosmos 1703 Rocket 4.4 05:14:11 10° SW 05:17:58 28° WNW 05:21:47 10° N
Cosmos 2251 Rocket 3.6 05:14:02 10° NNW 05:19:20 63° WSW 05:24:37 10° S
Cosmos 304 Rocket 4.0 05:14:57 10° NNW 05:19:45 75° ENE 05:24:30 10° SSE
Cosmos 1939 Rocket 4.3 05:18:23 10° NNW 05:20:49 16° WNW 05:23:15 10° WSW
NOSS 2-1 (E) 3.8 05:18:52 13° W 05:21:18 27° NW 05:23:59 10° NNE
CZ-3 R/B 4.1 05:19:13 10° SSW 05:22:20 12° SSW 05:24:43 10° S
Lacrosse 5 rocket 2.6 05:20:39 11° NW 05:23:05 20° N 05:25:40 10° NE
Cosmos 2237 Rocket 2.2 05:18:09 10° SW 05:23:47 65° WNW 05:29:25 10° NNE
Cosmos 2333 Rocket 4.1 05:22:16 10° NW 05:24:10 12° NNW 05:26:04 10° N
IGS 5A 3.5 05:21:49 10° NNE 05:25:52 78° ESE 05:29:52 10° S
Cosmos 2292 Rocket 4.4 05:24:29 10° SW 05:28:29 35° WNW 05:33:31 10° N
BlueWalker 3 3.9 05:27:50 10° W 05:29:47 14° SW 05:31:44 10° SSW
Cosmos 2151 Rocket 4.3 05:27:31 10° N 05:32:00 60° ENE 05:36:25 10° SSE
COSMOS 2455 4.5 05:28:30 10° WNW 05:32:19 17° NNW 05:36:09 10° NNE
NOSS 7 (E) 4.5 05:29:45 10° NW 05:32:51 68° NE 05:36:09 10° SE
Helios 1A Rocket 4.1 05:31:03 10° SW 05:33:11 16° W 05:35:19 10° NW
Cosmos 2242 Rocket 3.5 05:29:55 10° SSW 05:34:17 76° W 05:38:42 10° N
ATLAS 3B R/B 4.5 05:27:41 10° S 05:34:35 42° ESE 05:41:49 10° NE
Cosmos 2369 Rocket 2.9 05:29:56 10° NNW 05:35:31 55° ENE 05:41:06 10° SE
Cosmos 1624 Rocket 4.1 05:34:50 10° SSW 05:40:01 86° ESE 05:45:14 10° NNE
Cosmos 968 Rocket 4.2 05:36:49 10° NNW 05:42:00 58° ENE 05:47:10 10° SE
Cosmos 2360 Rocket 4.1 05:43:05 10° NW 05:44:21 11° NNW 05:45:38 10° N
Cosmos 2322 Rocket 4.2 05:44:24 10° NNW 05:44:48 10° NNW 05:45:12 10° NNW
Cosmos 1420 Rocket 4.1 05:40:41 10° SW 05:45:50 55° WNW 05:51:03 10° NNE
CENTAUR R/B 3.6 05:41:19 10° NW 05:49:22 69° NE 05:58:41 10° SE
